Back to catalog

NOAA 16 DEB

AlivePO
NORAD 42396·DEBRIS·🇺🇸 United States

Launched Sep 21, 2000 from Vandenberg Space Force Base

Loading…

Next Passes (next 24 hours)

TLE

FreshSource: Space-Track

Epoch: Sep 12, 2026, 21:43 UTC

1 42396U 00055SQ  26255.90511384  .00006994  00000-0  14111-2 0  9993
2 42396  98.8059  55.8083 0025468 104.9174 255.4848 14.61577865550124

Track NOAA 16 DEB in real time with AllMySat

Download on the App Store